[[{"header":{"parameterUnit":"m.s-1","parameterCategory":1,"la1":30.2991,"la2":30.254,"lo1":-89.0895,"lo2":-89.0444,"dy":0.0017,"dx":0.0017,"nx":28,"ny":28,"refTime":"2025-07-07T21:00:00:Z","depth":0,"parameterNumber":2,"parameterNumberName":"U-component_of_WINDS"},"data":[0,0,0,0,0,0,0,0,0,0,0,0,0,0,0,0,0,0,0,0,0,0,0,0,0,0,0,0,0,0,0,0,0,0,0,0,0,0,0,0,0,0,0,0,0,0,0,0,0,0,0,0,0,0,0,0,0,0,2.8998,2.8999,0,2.9086,2.9087,2.9088,2.9079,2.9078,2.9076,2.9075,2.9168,2.9172,2.9175,0,0,0,0,0,0,0,0,0,0,0,0,0,2.8827,2.883,2.8998,2.8999,2.9,2.9086,2.9087,2.9088,2.9079,2.9078,2.9076,2.9075,2.9167,2.9171,2.9176,0,0,0,0,0,0,0,0,0,0,0,0,0,2.8906,2.8831,2.8998,2.9006,2.9008,2.9085,2.9087,2.9088,2.908,2.9078,2.9076,2.9074,2.9165,2.9171,2.9176,2.9252,0,0,2.9193,2.9196,0,0,0,0,0,0,0,0,2.8902,2.8913,2.9004,2.9006,2.9008,2.9069,2.906,2.9143,2.908,2.9053,2.9075,2.9073,2.9137,2.9145,2.9166,2.9257,2.926,2.9194,2.9197,2.92,2.9201,0,0,0,0,0,0,0,2.8896,2.8909,2.9033,2.9005,2.9008,2.9007,2.9016,2.9076,2.9105,2.9055,2.9054,2.9065,2.9138,2.916,2.9168,2.9262,2.9194,2.9199,2.9202,2.9204,2.942,2.9423,0,0,0,0,0,0,2.8888,2.8904,2.903,2.9036,2.8949,2.9011,2.9022,2.9052,2.9105,2.9111,2.9066,2.9064,2.9152,2.9161,2.9171,2.9265,2.92,2.9205,2.9208,2.9418,2.9421,2.9424,0,0,0,0,0,0,2.8885,2.89,2.9027,2.897,2.8986,2.9017,2.9051,2.9055,2.9077,2.9113,2.9119,2.9084,2.9151,2.9163,2.9232,2.9268,2.9208,2.9213,2.9415,2.9419,2.9422,2.9451,0,0,0,0,0,0,2.888,2.8898,2.8927,2.8971,2.8989,2.9085,2.9053,2.9058,2.9087,2.9084,2.9131,2.9137,2.915,2.9224,2.9238,2.9274,2.9217,2.9412,2.9417,2.9421,2.9447,2.9455,2.9462,0,0,0,0,0,2.8874,2.8932,2.8928,2.8944,2.9025,2.9087,2.9098,2.911,2.9089,2.9119,2.9142,2.9136,2.9261,2.9231,2.9247,2.9285,2.941,2.9416,2.9421,2.9444,2.9454,2.9462,0,0,0,0,0,0,2.8893,2.8938,2.8934,2.9008,2.9044,2.9085,2.9123,2.912,2.9163,2.916,2.9174,2.9185,2.9255,2.9277,2.9242,2.9362,2.9333,2.9342,2.9345,2.9355,2.9362,2.9356,2.9222,0,0,0,0,0,2.8905,2.8951,2.8988,2.905,2.9068,2.9092,2.912,2.9126,2.9164,2.918,2.9208,2.9246,2.9294,2.9326,2.9372,2.945,2.9461,2.9484,2.9492,2.9498,2.9506,2.955,2.9561,2.9441,2.9441,2.9441,0,0,2.8932,2.8962,2.899,2.9054,2.9083,2.9131,2.9105,2.9157,2.9193,2.9188,2.9255,2.9277,2.932,2.9394,2.9429,2.9415,2.9541,2.9505,2.9509,2.9514,2.9556,2.9568,2.9578,2.9445,2.9444,2.9443,0,0,2.9005,2.9032,2.9087,2.9116,2.9159,2.9175,2.9188,2.923,2.9245,2.9311,2.9309,2.9353,2.9435,2.9466,2.9493,2.9579,2.9575,2.9593,2.9633,2.9676,2.9685,2.9694,2.9725,2.9736,2.9601,2.9601,2.9601,0,2.9033,2.9105,2.9116,2.9168,2.9197,2.9193,2.9249,2.9277,2.9334,2.9354,2.9338,2.9441,2.947,2.9552,2.9573,2.9595,2.9611,2.9588,2.9683,2.9691,2.9699,2.973,2.9742,2.9603,2.9603,2.9602,2.9602,0,2.9138,2.9188,2.9227,2.928,2.9314,2.9368,2.9388,2.942,2.9424,2.9442,2.9511,2.9545,2.9599,2.9619,2.9623,2.9702,2.9692,2.9679,2.965,2.9713,2.9742,2.9753,2.9606,2.9605,2.9604,2.9604,0,0,2.9226,2.9285,2.9299,2.9324,2.9371,2.9411,2.9465,2.9516,2.9544,2.9583,2.963,2.97,2.9688,2.9719,2.9727,2.9764,2.9831,2.9747,2.9748,2.9762,2.9922,2.9932,2.9945,2.9829,2.9831,2.9833,2.9918,0,2.9306,2.9401,2.9412,2.9497,2.9544,2.9541,2.9589,2.9624,2.9642,2.9686,2.9706,2.9756,2.9736,2.9755,2.9791,2.9815,2.9864,2.9809,2.9874,2.9876,2.9864,2.996,2.9971,3.005,2.993,2.9932,2.9933,0,2.9411,2.9452,2.9542,2.9583,2.9603,2.9645,2.9694,2.9735,2.9775,2.9785,2.9819,2.9823,2.988,2.9848,2.9929,2.9891,2.9918,2.9934,2.9938,2.9945,2.9909,2.9971,3.0076,3.0088,2.9951,2.9949,2.9948,0,2.9468,2.9546,2.961,2.9631,2.968,2.971,2.9733,2.977,2.9801,2.9843,2.9863,2.9912,2.994,2.9978,2.9995,2.997,3.0075,3.0044,3.0087,3.0086,3.011,3.0108,3.0221,3.0125,3.0125,3.0125,3.0125,0,2.9556,2.9611,2.9636,2.9675,2.9738,2.9751,2.9812,2.9833,2.9867,2.9912,2.9912,2.9954,2.9973,3.0019,3.0032,3.0097,3.011,3.0121,3.0124,3.0122,3.012,3.014,3.0136,3.0128,3.0127,3.0127,3.0126,0,2.963,2.9649,2.9719,2.976,2.9771,2.9816,2.9851,2.989,2.9908,2.9964,2.9978,3.0006,3.006,3.008,3.0146,3.0155,3.023,3.0229,3.0217,3.0218,3.026,3.0256,3.039,3.0409,3.03,3.0301,3.0302,0,2.9686,2.9728,2.9773,2.9803,2.9826,2.9873,2.9904,2.9918,2.9951,2.9999,3.0033,3.0086,3.0129,3.0215,3.0242,3.0292,3.0292,3.0336,3.03,3.0296,3.0294,3.0292,3.0297,3.0343,3.0344,3.0345,3.0346,0,2.9783,2.979,2.9833,2.9881,2.9917,2.9956,2.9993,3.0017,3.0037,3.0074,3.0128,3.0161,3.0228,3.0281,3.0333,3.0357,3.0356,3.0357,3.0369,3.0368,3.036,3.0366,3.0236,3.0354,3.0353,3.0352,3.0352,3.0352,2.985,2.9888,2.9926,2.9975,3.0004,3.0039,3.0078,3.01,3.0145,3.0199,3.0205,3.0264,3.0304,3.0373,3.0399,3.0446,3.0434,3.0453,3.0457,3.0462,3.0466,3.0351,3.0455,3.0455,3.0455,3.0455,3.0455,0,2.9948,2.9972,3.0017,3.0069,3.0108,3.0101,3.0142,3.0176,3.0227,3.0263,3.0305,3.0368,3.042,3.0451,3.0503,3.0534,3.0535,3.0548,3.0546,3.0552,3.0472,3.0456,3.0546,3.0546,3.0546,3.0546,3.0546,3.0546,3.0004,3.0068,3.0079,3.0158,3.0182,3.0239,3.0263,3.0295,3.0325,3.0394,3.0437,3.0456,3.0491,3.0545,3.0593,3.0601,3.062,3.0634,3.0641,3.0567,3.0557,3.0548,3.0534,3.0638,3.0638,3.0717,3.0718,3.0719]},{"header":{"parameterUnit":"m.s-1","parameterCategory":1,"la1":30.2991,"la2":30.254,"lo1":-89.0895,"lo2":-89.0444,"dy":0.0017,"dx":0.0017,"nx":28,"ny":28,"refTime":"2025-07-07T21:00:00:Z","depth":0,"parameterNumber":3,"parameterNumberName":"V-component_of_WINDS"},"data":[0,0,0,0,0,0,0,0,0,0,0,0,0,0,0,0,0,0,0,0,0,0,0,0,0,0,0,0,0,0,0,0,0,0,0,0,0,0,0,0,0,0,0,0,0,0,0,0,0,0,0,0,0,0,0,0,0,0,0.8916,0.8916,0,0.8869,0.8869,0.8868,0.8827,0.8827,0.8826,0.8826,0.8777,0.8776,0.8775,0,0,0,0,0,0,0,0,0,0,0,0,0,0.897,0.897,0.8916,0.8916,0.8915,0.8869,0.8869,0.8868,0.8827,0.8827,0.8826,0.8825,0.8777,0.8776,0.8775,0,0,0,0,0,0,0,0,0,0,0,0,0,0.8938,0.8969,0.8917,0.8889,0.8886,0.8869,0.8869,0.8868,0.8827,0.8827,0.8826,0.8825,0.8777,0.8776,0.8775,0.8781,0,0,0.8771,0.877,0,0,0,0,0,0,0,0,0.8939,0.8936,0.8894,0.8891,0.8888,0.8853,0.887,0.8839,0.8827,0.885,0.8826,0.8825,0.8803,0.8799,0.8792,0.8779,0.8776,0.8771,0.877,0.8769,0.8769,0,0,0,0,0,0,0,0.8942,0.8937,0.8898,0.8893,0.889,0.8879,0.8874,0.8864,0.8831,0.8848,0.8845,0.884,0.8801,0.8793,0.8791,0.8776,0.8771,0.877,0.8769,0.8768,0.8764,0.8764,0,0,0,0,0,0,0.8948,0.894,0.8899,0.8896,0.8913,0.8879,0.8873,0.8865,0.8831,0.8825,0.884,0.8838,0.8796,0.8792,0.8789,0.8793,0.8769,0.8768,0.8768,0.8763,0.8764,0.8765,0,0,0,0,0,0,0.895,0.8945,0.8901,0.8917,0.8911,0.8879,0.887,0.8865,0.8857,0.8825,0.8819,0.8839,0.8795,0.8791,0.8783,0.879,0.8768,0.8766,0.8762,0.8763,0.8764,0.8801,0,0,0,0,0,0,0.8951,0.8946,0.8948,0.8917,0.891,0.8896,0.8871,0.8864,0.8855,0.8851,0.8822,0.8816,0.8794,0.8785,0.8782,0.8788,0.8765,0.8761,0.8763,0.8764,0.8799,0.8803,0.8807,0,0,0,0,0,0.8953,0.896,0.8948,0.8944,0.8912,0.8897,0.8893,0.8867,0.8856,0.8857,0.8837,0.8817,0.879,0.8785,0.878,0.8787,0.8761,0.8762,0.8764,0.8797,0.8803,0.8807,0,0,0,0,0,0,0.8993,0.8956,0.8942,0.8939,0.8922,0.889,0.8891,0.8874,0.8859,0.8856,0.8825,0.8819,0.8815,0.88,0.8794,0.879,0.8773,0.8774,0.88,0.8805,0.8808,0.8812,0.8764,0,0,0,0,0,0.9001,0.8992,0.896,0.8961,0.8953,0.8924,0.8916,0.8898,0.8879,0.8871,0.885,0.8831,0.8818,0.8811,0.8797,0.8797,0.879,0.8799,0.8803,0.8806,0.8807,0.8805,0.8809,0.8769,0.8769,0.8769,0,0,0.9018,0.8997,0.8993,0.8968,0.8952,0.8944,0.8918,0.891,0.8903,0.887,0.8861,0.8845,0.8822,0.8818,0.8815,0.8806,0.8817,0.8808,0.8811,0.881,0.8807,0.8811,0.8814,0.877,0.877,0.877,0,0,0.9044,0.9028,0.9026,0.9011,0.8987,0.8968,0.8967,0.8938,0.8926,0.8917,0.8892,0.8883,0.8862,0.8847,0.8836,0.8857,0.8838,0.8853,0.8873,0.8872,0.8875,0.8877,0.8884,0.8887,0.8854,0.8854,0.8854,0,0.9068,0.9054,0.9028,0.9021,0.901,0.898,0.8978,0.8964,0.8938,0.8931,0.8921,0.8893,0.8876,0.8867,0.8872,0.8865,0.8863,0.8856,0.8877,0.8879,0.8881,0.8887,0.889,0.8856,0.8856,0.8856,0.8856,0,0.9085,0.9075,0.9077,0.9052,0.9041,0.9037,0.9009,0.9002,0.8985,0.8967,0.8958,0.8936,0.8917,0.8914,0.8897,0.8903,0.8897,0.8882,0.8864,0.8887,0.8892,0.8894,0.8859,0.8858,0.8858,0.8857,0,0,0.9134,0.9094,0.9095,0.9083,0.9055,0.9047,0.9041,0.9023,0.9017,0.8999,0.8993,0.8976,0.8962,0.895,0.8931,0.893,0.8946,0.8915,0.8914,0.8921,0.8951,0.8962,0.8965,0.8934,0.8934,0.8935,0.8953,0,0.9155,0.9143,0.9119,0.9114,0.9105,0.9076,0.9071,0.9053,0.9035,0.9025,0.9005,0.8993,0.8976,0.8968,0.8966,0.8945,0.8952,0.8943,0.8928,0.8927,0.8934,0.8968,0.898,0.8998,0.8954,0.8955,0.8955,0,0.9179,0.9163,0.9157,0.9129,0.9124,0.912,0.9101,0.9092,0.907,0.9058,0.9044,0.9024,0.9015,0.8999,0.8987,0.8982,0.8974,0.8963,0.8963,0.896,0.8942,0.8966,0.9003,0.9006,0.8958,0.8958,0.8957,0,0.9215,0.9192,0.9186,0.9176,0.9143,0.9141,0.9127,0.9105,0.9096,0.9079,0.9073,0.9055,0.9046,0.9033,0.9008,0.8998,0.8998,0.898,0.8987,0.8988,0.8988,0.8988,0.9024,0.8984,0.8984,0.8984,0.8984,0,0.924,0.9238,0.9201,0.9197,0.9194,0.9166,0.9163,0.9146,0.9127,0.9119,0.9093,0.9086,0.9054,0.9043,0.9023,0.9016,0.9012,0.9001,0.8996,0.9003,0.9004,0.8997,0.8995,0.8985,0.8984,0.8984,0.8984,0,0.928,0.9255,0.9246,0.9216,0.9208,0.9207,0.918,0.9175,0.9157,0.9147,0.9143,0.9113,0.9099,0.9073,0.9051,0.9038,0.9035,0.9026,0.9042,0.9039,0.9047,0.9047,0.9079,0.9082,0.9041,0.9041,0.9042,0,0.9298,0.9295,0.9265,0.9258,0.9245,0.9234,0.9224,0.9196,0.9187,0.9162,0.916,0.9144,0.9129,0.9108,0.9084,0.9068,0.9058,0.9071,0.9055,0.9063,0.9058,0.9058,0.9057,0.9074,0.9075,0.9075,0.9075,0,0.9332,0.932,0.9307,0.929,0.9279,0.9264,0.9247,0.9243,0.9211,0.9202,0.9187,0.9176,0.9154,0.9138,0.9118,0.9103,0.9084,0.9081,0.9081,0.9088,0.9098,0.9092,0.9051,0.908,0.9079,0.9079,0.9079,0.9079,0.936,0.9357,0.9335,0.9321,0.9306,0.9291,0.9285,0.9265,0.9253,0.9233,0.9217,0.9203,0.9182,0.9153,0.9139,0.9128,0.9119,0.912,0.912,0.912,0.9123,0.91,0.9124,0.9124,0.9124,0.9123,0.9123,0,0.9393,0.9377,0.9365,0.9343,0.9332,0.9315,0.9296,0.9288,0.9277,0.9258,0.9245,0.9228,0.9212,0.9187,0.9169,0.9165,0.9156,0.9161,0.9161,0.9158,0.9133,0.9134,0.9169,0.9169,0.9169,0.9169,0.9169,0.9169,0.9408,0.9401,0.9387,0.9371,0.9355,0.9342,0.9333,0.9319,0.9304,0.9286,0.9273,0.9257,0.9236,0.9217,0.9202,0.9195,0.9189,0.9197,0.9188,0.9164,0.916,0.9156,0.9157,0.9197,0.9197,0.9214,0.9214,0.9214]}]]